Regional Weather Roundup
Issued by NWS

Home | Current Version | Previous Version | Text Only | Print | Product List | Glossary On
Versions: 1 2 3 4 5 6 7 8 9 10 11 12 13 14 15 16 17 18 19 20 21 22 23 24 25 26 27 28 29 30 31 32 33 34 35 36 37 38 39 40 41 42 43 44 45 46 47 48 49 50
000
ASUS43 KIND 220109
RWRIN

WEATHER ROUNDUP FOR INDIANA
NATIONAL WEATHER SERVICE INDIANAPOLIS IN
900 PM EDT SUN JUL 21 2019

NOTE: "FAIR" INDICATES FEW OR NO CLOUDS BELOW 12,000 FEET WITH NO
SIGNIFICANT WEATHER AND/OR OBSTRUCTIONS TO VISIBILITY.

* - STATION DOES NOT REPORT WEATHER SUCH AS PRECIPITATION OR FOG.

+ - STATION NOT QUALITY CONTROLLED BY THE NATIONAL WEATHER SERVICE.
    USE DATA WITH CAUTION...ESPECIALLY DEWPOINT AND RELATIVE
    HUMIDITY OBSERVATIONS.

INZ001>003-010>013-019-020-220200-
NORTHWEST INDIANA

CITY           SKY/WX    TMP DP  RH WIND       PRES   REMARKS
GARY /AIRPORT/ MOCLDY    73  68  83 N18       29.98R
KNOX *+        CLOUDY    72  70  94 MISG      29.94R
LA PORTE +     FAIR      71  69  93 N6        29.96R
MICHIGAN CITY+ CLOUDY    70  54  56 N6        29.96S
MONTICELLO +   CLOUDY    73  69  88 NW6       29.94R
RENSSELAER +   CLOUDY    72  68  88 CALM      29.96R
VALPARAISO     MOCLDY    73  67  81 N6        29.96R

$$

LMZ046-743>745-220200-
SOUTHERN LAKE MICHIGAN

STATION/POSITION TIME  TEMP    WIND        PRES    WAVE
                       AIR SEA DIR/SP/G            HT
                 (UTC) (F)     (DEG/KT/KT) (MB)    (FT)
BURNS HARBOR     0040   74      20/  7/  9 1014.6R
5NW MICH CITY    0050   75 76   10/ 16/ 21   N/A     4

$$

INZ004-005-014>016-021>024-220200-
NORTH CENTRAL INDIANA

CITY           SKY/WX    TMP DP  RH WIND       PRES   REMARKS
GOSHEN         FAIR      71  67  87 N8        29.94R
LOGANSPORT +   CLOUDY    72  70  94 NW5       29.95R
PLYMOUTH *+    MOCLDY    72  70  94 NW3       29.93R
ROCHESTER +    FAIR      73  70  88 CALM      29.94R
SOUTH BEND     CLOUDY    72  70  93 N7        29.95R
WARSAW +       CLOUDY    70  70 100 N5        29.93R

$$

INZ006>009-017-018-025>027-220200-
NORTHEAST INDIANA

CITY           SKY/WX    TMP DP  RH WIND       PRES   REMARKS
ANGOLA *+      LGT RAIN  72  70  94 N6        29.93S
AUBURN +       FAIR      70  70 100 CALM      29.93R
FORT WAYNE     MOCLDY    72  70  93 NE7       29.91F
HUNTINGTON +   FAIR      71  70  96 CALM      29.91S
KENDALLVILLE + LGT RAIN  70  70 100 NE5       29.94S

$$

INZ028-029-035-036-043>045-051>053-220200-
WEST CENTRAL INDIANA

CITY           SKY/WX    TMP DP  RH WIND       PRES   REMARKS
CRAWFORDSVL +  MOCLDY    72  72 100 NW3       29.94F
GREENCASTLE +  FAIR      72  70  94 CALM      29.92F
LAFAYETTE      FAIR      74  69  85 N6        29.93S
TERRE HAUTE    MOCLDY    74  71  91 W6        29.93S

$$

INZ030>032-037>040-046>048-054>057-064-065-220200-
CENTRAL INDIANA

CITY           SKY/WX    TMP DP  RH WIND       PRES   REMARKS
ANDERSON +     LGT RAIN  73  70  89 CALM      29.94S
COLUMBUS       MOCLDY    73  70  88 NW9       29.91F
FISHERS *+     MOCLDY   N/A N/A N/A NE3       29.92
FRANKFORT +    FAIR      75  72  88 NW3       29.95F
INDIANAPOLIS   LGT RAIN  75  71  87 CALM      29.90F
-EAGLE CREEK   LGT RAIN  74  71  91 CALM      29.90F
KOKOMO +       FAIR      73  72  96 W8        29.94F
MARION +       FAIR     N/A N/A N/A CALM      29.93S
SHELBYVILLE    RAIN      74  68  81 N5        29.91F
ZIONSVILLE +   LGT RAIN  71  71 100 N3        29.94F

$$

INZ033-034-041-042-049-050-058-059-220200-
EAST CENTRAL INDIANA

CITY           SKY/WX    TMP DP  RH WIND       PRES   REMARKS
MUNCIE         FAIR      76  72  87 CALM      29.93R
PORTLAND +     LGT RAIN N/A N/A N/A SE3       29.91R
RICHMOND +     LGT RAIN  73  73 100 N8        29.94R

$$

INZ060-061-067>069-081>083-085>088-220200-
SOUTHWEST INDIANA

CITY           SKY/WX    TMP DP  RH WIND       PRES   REMARKS
EVANSVILLE     TSTM      74  70  87 W9G30     29.93R FOG
HUNTINGBURG +  TSTM      72  72 100 MISG        N/A  FOG
WASHINGTON +   CLOUDY   N/A N/A N/A SW3       29.92F

$$

INZ062-063-066-070>080-084-089>092-220200-
SOUTH CENTRAL AND SOUTHEAST INDIANA

CITY           SKY/WX    TMP DP  RH WIND       PRES   REMARKS
BATESVILLE +   MOCLDY    75  75 100 VRB6G17   29.94R FOG
BEDFORD +      TSTM      73  68  83 NW5       29.92
BLOOMINGTON    LGT RAIN  73  72  96 W6        29.92F
FRENCH LICK *+ FAIR      73  68  83 CALM      29.94S
JEFFERSONVL +  FAIR      83  74  75 S6        29.90F HX  90
MADISON *+     FAIR      79  73  83 CALM      29.94S
NORTH VERNON + LGT RAIN  72  70  94 NW18      29.94R

$$




USA.gov is the U.S. government's official web portal to all federal, state and local government web resources and services.